EDT,Max TemperatureF,Mean TemperatureF,Min TemperatureF,Max Dew PointF,MeanDew PointF,Min DewpointF,Max Humidity, Mean Humidity, Min Humidity, Max Sea Level PressureIn, Mean Sea Level PressureIn, Min Sea Level PressureIn, Max VisibilityMiles, Mean VisibilityMiles, Min VisibilityMiles, Max Wind SpeedMPH, Mean Wind SpeedMPH, Max Gust SpeedMPH,PrecipitationIn, CloudCover, Events, WindDirDegrees
2013-6-1,87,76,66,64,62,61,84,62,44,30.01,29.94,29.83,10,10,10,15,4,24,0.00,2,,218
2013-6-2,75,70,63,65,62,58,94,76,57,29.94,29.88,29.81,10,9,1,20,10,29,0.22,5,Rain-Thunderstorm,211
2013-6-3,72,66,55,63,60,53,94,82,60,30.04,29.93,29.87,10,7,0,13,3,17,0.26,7,Fog-Rain,8
2013-6-4,73,60,48,53,45,41,93,60,34,30.15,30.10,30.03,10,10,6,8,3,,0.00,0,,26
2013-6-5,82,66,51,64,56,47,89,69,45,30.10,30.01,29.91,10,10,10,8,2,,0.01,3,Rain-Thunderstorm,106
2013-6-6,75,68,64,65,63,60,90,83,68,29.95,29.83,29.75,10,8,2,9,3,,0.35,7,Rain,149
2013-6-7,69,65,62,65,61,55,94,86,73,29.87,29.78,29.72,10,8,2,10,4,,0.13,8,Rain,342
2013-6-8,75,66,59,59,56,55,87,76,53,30.10,29.97,29.86,10,9,7,8,3,,0.00,6,Rain,288
2013-6-9,84,70,57,64,60,56,93,70,44,30.13,30.06,30.00,10,9,4,8,1,,0.00,4,,214
2013-6-10,78,70,64,66,62,59,90,80,69,30.03,29.88,29.81,10,9,2,18,5,26,0.12,6,Rain,198
2013-6-11,78,70,62,64,61,59,94,80,58,29.94,29.89,29.83,10,9,5,12,5,18,0.00,5,,239
2013-6-12,84,75,66,70,66,61,84,72,56,29.92,29.87,29.78,10,10,7,10,4,,0.00,4,Rain,221
2013-6-13,75,68,61,68,63,54,94,88,73,29.80,29.68,29.59,10,6,0,26,8,41,2.59,7,Fog-Rain-Thunderstorm,245
2013-6-14,73,63,54,57,55,52,93,75,55,30.05,29.94,29.81,10,10,6,8,4,18,0.00,3,,314
2013-6-15,78,64,51,58,54,50,100,79,39,30.17,30.08,30.02,10,5,0,8,1,,0.00,1,Fog,260
2013-6-16,73,68,63,65,61,57,84,77,65,30.01,29.99,29.95,10,10,10,14,5,22,0.01,7,Rain,220
2013-6-17,82,74,66,66,65,63,87,77,58,30.01,29.95,29.89,10,9,7,8,4,,0.00,5,,241
2013-6-18,75,68,64,66,63,60,94,86,66,29.96,29.89,29.84,10,6,2,9,2,,0.17,3,Rain,288
2013-6-19,78,70,62,63,58,54,94,73,43,30.12,30.03,29.93,10,10,9,7,2,,0.00,4,,1
2013-6-20,82,68,54,60,56,52,93,69,42,30.21,30.18,30.13,10,9,3,6,1,,0.00,0,,310
2013-6-21,84,70,55,63,58,54,94,74,36,30.27,30.22,30.15,10,7,2,5,0,,0.00,0,,248
2013-6-22,84,72,61,67,63,58,90,70,49,30.23,30.16,30.08,10,10,7,12,3,,0.00,0,,199
2013-6-23,88,75,64,67,65,62,93,71,46,30.17,30.12,30.05,10,9,5,8,1,,0.00,2,,234
2013-6-24,87,74,63,68,65,61,97,74,48,30.15,30.09,30.03,10,8,2,10,2,,0.06,2,Rain,232
2013-6-25,87,78,69,68,66,65,90,70,51,30.12,30.02,29.93,10,10,8,13,5,21,0.00,2,,223
2013-6-26,82,76,69,69,67,65,90,77,56,29.97,29.91,29.82,10,9,2,15,5,18,0.04,4,Rain,236
2013-6-27,72,70,68,67,66,64,94,89,81,29.81,29.75,29.68,10,6,1,12,3,21,1.00,7,Rain,231
2013-6-28,81,72,64,70,65,62,94,88,69,29.70,29.63,29.55,10,7,0,28,6,40,1.44,6,Rain-Thunderstorm,219
2013-6-29,78,69,61,65,62,59,93,79,56,29.68,29.62,29.57,10,10,6,10,5,,0.03,1,Rain,191
2013-6-30,84,73,62,65,63,60,93,70,44,29.79,29.73,29.68,10,9,5,9,4,,0.00,1,,317